Lexington Weather

Lexington, Massachusetts, USA

71°F
9/22/2021 2:13pm 
  • Lexington Conditions: Light rain, Mist, Overcast
  • Temperature: 71.4°F / 21.9°CColder 3.6°F than last hour.
  • Dew Point: 69.3°FIncreased 0.6°Fsince last hour.
  • Relative Humidity: 93%Increased 12.0% since last hour.
  • Wind: Wind from W W 4 mph, 10-min avg: 2 mph, gust: 7 mph
  • Barometer: 30.09 in Steady
  • Visibility: 2 miles
  • Rain Today: 0.00 in
  •   

Regional Weather Roundup
for Boston / Norton, MA

        
000
ASUS41 KBOX 160804
RWRBOX

REGIONAL WEATHER ROUNDUP
NATIONAL WEATHER SERVICE BOSTON/NORTON MA
400 AM EDT THU SEP 16 2021

NOTE:  "FAIR" INDICATES FEW OR NO CLOUDS BELOW 12,000 FEET WITH NO 
SIGNIFICANT WEATHER AND/OR OBSTRUCTIONS TO VISIBILITY.

MAZALL-160900-
EASTERN MASSACHUSETTS
  
CITY           SKY/WX    TMP DP  RH WIND       PRES   REMARKS
BOSTON         MOCLDY    74  63  68 N5        30.09R                  
BEVERLY        MOCLDY    69  44  40 NW10      30.08S                  
LAWRENCE       CLOUDY    67  64  90 CALM      30.11S                  
BEDFORD        RAIN      67  65  93 N5        30.09R FOG              
BLUE HILL      NOT AVBL                                               
NORWOOD        MOCLDY    68  66  93 CALM      30.08F                  
MARSHFIELD     CLOUDY    72  68  88 CALM      30.09R                  
PLYMOUTH       CLOUDY    72  69  90 CALM      30.09S                  
TAUNTON        MOCLDY    71  69  93 CALM      30.09R                  
NEW BEDFORD    CLOUDY    73  71  93 S3        30.08R                  
$$

MAZALL-160900-
CAPE COD AND THE ISLANDS
  
CITY           SKY/WX    TMP DP  RH WIND       PRES   REMARKS
FALMOUTH       CLOUDY    73  72  94 SW9       30.09S                  
HYANNIS        MOCLDY    73  72  96 S6        30.08S                  
CHATHAM        LGT RAIN  73  72  96 VRB3      30.11S                  
PROVINCETOWN   CLOUDY    70  69  97 SW5       30.10R                  
NANTUCKET      PTCLDY    72  70  93 S7        30.11R                  
MARTHAS VNYRD  LGT RAIN  72  71  97 SW6       30.09F                  
$$
 
MAZALL-160900-
CENTRAL AND WESTERN MASSACHUSETTS
  
CITY           SKY/WX    TMP DP  RH WIND       PRES   REMARKS
WORCESTER      HVY RAIN  66  62  87 NW18G24   30.15R FOG              
FITCHBURG      LGT RAIN  67  66  97 CALM      30.12R                  
ORANGE         MOCLDY    65  64  97 CALM      30.12S                  
SPRINGFIELD    CLOUDY    65  64  98 NE6       30.10F                  
WESTFIELD      LGT RAIN  66  65  96 N6        30.11F                  
NORTH ADAMS    LGT RAIN  62  60  93 CALM      30.14S                  
PITTSFIELD     LGT RAIN  60  59  96 CALM      30.12F                  
$$
 
RIZALL-160900-
RHODE ISLAND
  
CITY           SKY/WX    TMP DP  RH WIND       PRES   REMARKS
PROVIDENCE     CLOUDY    73  70  90 N7        30.08S                  
NEWPORT        CLOUDY    72  70  93 S3        30.08R                  
BLOCK ISLAND   CLOUDY    70  68  93 SW5       30.09S                  
SMITHFIELD     PTCLDY    68  66  93 N5        30.10S                  
WESTERLY       CLOUDY    71  71 100 S3        30.07S                  
$$
 
CTZALL-160900-
CONNECTICUT
  
CITY           SKY/WX    TMP DP  RH WIND       PRES   REMARKS
BRADLEY INTL   LGT RAIN  67  65  93 N6        30.11R                  
HARTFORD       CLOUDY    70  64  81 N7        30.10R THUNDER          
BRIDGEPORT     MOCLDY    72  64  76 N8        30.08R                  
DANBURY        MOCLDY    70  62  76 N6        30.13R                  
GROTON         CLOUDY    73  71  93 W3        30.06S                  
NEW HAVEN      MOCLDY    72  67  84 N9        30.08R                  
CHESTER        FAIR      70  68  94 N7        30.09R                  
MERIDEN        CLOUDY    70  63  78 W7        30.10R                  
WILLIMANTIC    PTCLDY    67  66  97 CALM      30.10S                  
OXFORD         MOCLDY    67  62  84 N10       30.13R                  
$$

MEZ002-015-021-024-NHZ003-005-008-011-012-014-VTZ005-008-160900-
NORTHERN NEW ENGLAND
  
CITY           SKY/WX    TMP DP  RH WIND       PRES   REMARKS
PORTLAND ME    LGT RAIN  66  66 100 NW3       30.10R                  
BANGOR ME      MOCLDY    62  58  86 NW7       30.11R                  
CONCORD NH     NOT AVBL                                               
MANCHESTER NH  CLOUDY    68  63  84 W3        30.09R                  
NASHUA NH      CLOUDY    66  66 100 W3        30.11R                  
PORTSMOUTH NH  LGT RAIN  66  64  94 W3        30.10S                  
JAFFREY NH     LGT RAIN  64  63  96 S3        30.13S                  
KEENE NH       RAIN      64  63  96 NW5       30.13R                  
BURLINGTON VT  CLEAR     57  55  93 CALM      30.16R                  
MT. WASHINGTON MOCLDY    41  36  81 NW32        N/A  WCI  29          
$$

NYZ052-076-160900-
EASTERN NEW YORK
  
CITY           SKY/WX    TMP DP  RH WIND       PRES   REMARKS
ALBANY         CLOUDY    60  60 100 CALM      30.14R                  
NEW YORK CITY  CLOUDY    73  63  70 NE9       30.07R                  
$$
 
ANZALL-160900-
MARINE OBSERVATIONS
  
STATION/POSITION TIME  TEMP    WIND        PRES    VSBY  WAVE
                       AIR SEA DIR/SP/G                  HT/PER
                 (UTC) (F)     (DEG/KT/KT) (MB)    (MI)  (FT/S)
BOSTON BUOY      0740      65  300/  2/  2 1019.2F
BUZZARDS BAY     0700          190/ 12/ 12 1019.8R
NANTUCKET SOUND  0750   73 72  230/ 10/ 12 1018.9F         1/ 3
MASS BAY-STELLWA 0704   66     250/  4/  4 1018.5R  1 7/8  1/ 5
ISLE OF SHOALS   0700   69     290/ 11/ 11 1018.0R
S OF BLOCK IS    0726      69                N/A           4/ 6
$$

......................KEY.........................
  SKY/WX - SKY CONDITION/PRESENT WEATHER
  TMP    - TEMPERATURE IN FAHRENHEIT
  DWPT   - DEWPOINT IN FAHRENHEIT
  RH     - RELATIVE HUMIDITY IN PERCENT
  WIND   - DIRECTION AND SPEED IN MPH
  PRES   - MEAN SEA LEVEL PRESSURE IN INCHES OF HG
  WCI    - WIND CHILL INDEX
  VSB    - VISIBILITY IN MILES
  HX     - HEAT INDEX
  TC     - TEMPERATURE IN CELSIUS
  VRB    - VARIABLE WIND DIRECTION
  N/A    - NOT AVAILABLE
  
      

Other recent Regional Weather Roundups

Wed Sep 22, 2:04pm

Wed Sep 22, 1:04pm

Wed Sep 22, 12:05pm

Wed Sep 22, 11:04am

Wed Sep 22, 10:04am

Wed Sep 22, 9:04am

Wed Sep 22, 8:04am

Wed Sep 22, 7:04am

Wed Sep 22, 6:04am

Wed Sep 22, 5:04am

Wed Sep 22, 4:04am

Wed Sep 22, 3:04am

Wed Sep 22, 2:04am

Wed Sep 22, 1:04am

Wed Sep 22, 12:04am

Tue Sep 21, 11:04pm

Tue Sep 21, 10:04pm

Tue Sep 21, 9:04pm

Tue Sep 21, 8:04pm

Tue Sep 21, 7:04pm

Tue Sep 21, 6:04pm

Tue Sep 21, 5:04pm

Tue Sep 21, 4:04pm

Tue Sep 21, 3:04pm

Tue Sep 21, 2:04pm

Tue Sep 21, 1:04pm

Tue Sep 21, 12:04pm

Tue Sep 21, 11:04am

Tue Sep 21, 10:04am

Tue Sep 21, 9:04am

Tue Sep 21, 8:04am

Tue Sep 21, 7:04am

Tue Sep 21, 6:04am

Tue Sep 21, 5:04am

Tue Sep 21, 4:04am

Tue Sep 21, 3:04am

Tue Sep 21, 2:04am

Tue Sep 21, 1:04am

Tue Sep 21, 12:04am

Mon Sep 20, 11:04pm

Mon Sep 20, 10:04pm

Mon Sep 20, 9:04pm

Mon Sep 20, 8:04pm

Mon Sep 20, 7:04pm

Mon Sep 20, 6:04pm

Mon Sep 20, 5:04pm

Mon Sep 20, 4:04pm

Mon Sep 20, 3:04pm

Mon Sep 20, 2:04pm

Mon Sep 20, 1:04pm

Mon Sep 20, 12:04pm

Mon Sep 20, 11:04am

Mon Sep 20, 10:04am

Mon Sep 20, 9:04am

Mon Sep 20, 7:04am

Mon Sep 20, 6:04am

Mon Sep 20, 5:04am

Mon Sep 20, 4:04am

Mon Sep 20, 3:04am

Mon Sep 20, 2:04am

Mon Sep 20, 1:04am

Mon Sep 20, 12:04am

Sun Sep 19, 11:04pm

Sun Sep 19, 10:04pm

Sun Sep 19, 9:04pm

Sun Sep 19, 8:04pm

Sun Sep 19, 7:04pm

Sun Sep 19, 6:04pm

Sun Sep 19, 5:04pm

Sun Sep 19, 4:04pm

Sun Sep 19, 3:04pm

Sun Sep 19, 2:05pm

Sun Sep 19, 1:04pm

Sun Sep 19, 12:04pm

Sun Sep 19, 11:04am

Sun Sep 19, 10:05am

Sun Sep 19, 9:04am

Sun Sep 19, 8:04am

Sun Sep 19, 7:04am

Sun Sep 19, 6:04am

Sun Sep 19, 5:04am

Sun Sep 19, 4:04am

Sun Sep 19, 3:04am

Sun Sep 19, 2:04am

Sun Sep 19, 1:04am

Sun Sep 19, 12:04am

Sat Sep 18, 11:05pm

Sat Sep 18, 10:04pm

Sat Sep 18, 9:04pm

Sat Sep 18, 8:04pm

Sat Sep 18, 7:04pm

Sat Sep 18, 6:04pm

Sat Sep 18, 5:04pm

Sat Sep 18, 4:04pm

Sat Sep 18, 3:04pm

Sat Sep 18, 2:04pm

Sat Sep 18, 1:04pm

Sat Sep 18, 12:04pm

Sat Sep 18, 11:04am

Sat Sep 18, 10:04am

Sat Sep 18, 9:04am

Sat Sep 18, 8:04am

Sat Sep 18, 7:04am

Sat Sep 18, 6:04am

Sat Sep 18, 5:04am

Sat Sep 18, 4:04am

Sat Sep 18, 3:04am

Sat Sep 18, 2:04am

Sat Sep 18, 1:04am

Sat Sep 18, 12:04am

Fri Sep 17, 11:04pm

Fri Sep 17, 10:04pm

Fri Sep 17, 9:04pm

Fri Sep 17, 8:04pm

Fri Sep 17, 7:04pm

Fri Sep 17, 6:04pm

Fri Sep 17, 5:04pm

Fri Sep 17, 4:04pm

Fri Sep 17, 3:04pm

Fri Sep 17, 2:04pm

Fri Sep 17, 1:04pm

Fri Sep 17, 12:05pm

Fri Sep 17, 11:04am

Fri Sep 17, 10:04am

Fri Sep 17, 9:04am

Fri Sep 17, 8:04am

Fri Sep 17, 7:04am

Fri Sep 17, 6:04am

Fri Sep 17, 5:04am

Fri Sep 17, 4:04am

Fri Sep 17, 3:04am

Fri Sep 17, 2:04am

Fri Sep 17, 1:04am

Fri Sep 17, 12:04am

Thu Sep 16, 11:04pm

Thu Sep 16, 10:04pm

Thu Sep 16, 9:04pm

Thu Sep 16, 8:04pm

Thu Sep 16, 7:04pm

Thu Sep 16, 6:04pm

Thu Sep 16, 5:04pm

Thu Sep 16, 4:04pm

Thu Sep 16, 3:04pm

Thu Sep 16, 2:04pm

Thu Sep 16, 1:05pm

Thu Sep 16, 12:04pm

Thu Sep 16, 11:05am

Thu Sep 16, 10:05am

Thu Sep 16, 9:04am

Thu Sep 16, 8:04am

Thu Sep 16, 7:04am

Thu Sep 16, 6:04am

Thu Sep 16, 5:04am

Thu Sep 16, 3:04am

Thu Sep 16, 2:04am

Thu Sep 16, 1:04am

Thu Sep 16, 12:04am

Wed Sep 15, 11:04pm

Wed Sep 15, 10:04pm

Wed Sep 15, 9:04pm

Wed Sep 15, 8:04pm

Wed Sep 15, 7:04pm

Wed Sep 15, 6:04pm

Wed Sep 15, 5:05pm

Wed Sep 15, 4:04pm

Wed Sep 15, 3:04pm

Meta data:

ID: 9fed7f45-0780-4620-9116-775b902ffd9b
Link: https://api.weather.gov/products/9fed7f45-0780-4620-9116-775b902ffd9b